This is the latest recevied weather packets stored in our database for station/object EB1BWO-10. If no packets are shown the sender has not sent any weather packets the latest 10 day(s).
| Time | Temp. | Humidity | Pressure | Rain* | Wind** | Luminosity | Snow |
|---|---|---|---|---|---|---|---|
| 1777832874 | 10.56° C | 100% | 946.9 hPa | - | - | - | - |
| 1777831973 | 10.56° C | 100% | 947.1 hPa | - | - | - | - |
| 1777831073 | 11.11° C | 100% | 946.9 hPa | - | - | - | - |
| 1777830173 | 11.11° C | 100% | 946.9 hPa | - | - | - | - |
| 1777829273 | 11.11° C | 99% | 946.7 hPa | - | - | - | - |
| 1777828373 | 11.11° C | 98% | 946.8 hPa | - | - | - | - |
| 1777827473 | 11.11° C | 98% | 946.8 hPa | - | - | - | - |
| 1777826573 | 11.67° C | 95% | 946.6 hPa | - | - | - | - |
| 1777825673 | 12.22° C | 96% | 946.6 hPa | - | - | - | - |
| 1777824773 | 12.22° C | 93% | 945.7 hPa | - | - | - | - |
| 1777823873 | 12.78° C | 93% | 946.5 hPa | - | - | - | - |
| 1777822973 | 12.78° C | 93% | 946.6 hPa | - | - | - | - |
| 1777822073 | 12.78° C | 95% | 946.6 hPa | - | - | - | - |
| 1777821173 | 12.78° C | 94% | 946.7 hPa | - | - | - | - |
| 1777820272 | 12.22° C | 95% | 946.9 hPa | - | - | - | - |
| 1777819373 | 11.11° C | 95% | 946.7 hPa | - | - | - | - |
| 1777818472 | 11.67° C | 99% | 947 hPa | - | - | - | - |
| 1777817572 | 12.22° C | 96% | 946.9 hPa | - | - | - | - |
| 1777816672 | 12.22° C | 95% | 947.2 hPa | - | - | - | - |
| 1777815772 | 11.67° C | 99% | 947.2 hPa | - | - | - | - |
| 1777814872 | 11.67° C | 93% | 946.8 hPa | - | - | - | - |
| 1777813972 | 12.22° C | 89% | 946.9 hPa | - | - | - | - |
| 1777812173 | 13.89° C | 89% | 946.9 hPa | - | - | - | - |
| 1777811273 | 13.89° C | 88% | 946.8 hPa | - | - | - | - |
| 1777810373 | 14.44° C | 88% | 947.2 hPa | - | - | - | - |
* Rain since midnight (hover to see other rain measurements)
** Current wind speed in m/s (hover to see current wind gust speed)